Skip Page Navigation
NASA JPL Caltech
NASA Logo - Jet Propulsion Laboratory + View the NASA Portal
+ Center for Near-Earth Object Studies
JPL Home Earth Solar System Stars & Galaxies Technology
JPL Solar System Dynamics
BODIES ORBITS EPHEMERIDES TOOLS PHYSICAL DATA DISCOVERY FAQ SITE MAP
IMPORTANT: The SSD Announcement email list is now available. Major changes are coming in the near future, including possible hostname and/or URL changes. To be notified of such changes, subscribe to this email list.

Please visit this page for more details.


JPL Small-Body Database Browser
Search: [ help ]  
305002 (2007 TQ269)
Classification: Main-belt Asteroid          SPK-ID: 2305002
Ephemeris | Orbit Diagram | Orbital Elements | Mission Design | Physical Parameters | Discovery Circumstances | Close-Approach Data ]

[ show orbit diagram ]
Orbital Elements at Epoch 2458600.5 (2019-Apr-27.0) TDB
Reference: JPL 11 (heliocentric ecliptic J2000)
 Element Value Uncertainty (1-sigma)   Units 
e .09863247983777096 3.1606e-07  
a 2.550750021168687 3.1777e-08 au
q 2.299163221134572 8.0747e-07 au
i 2.919127206481636 7.566e-06 deg
node 166.1595987380395 0.00010194 deg
peri 34.87306069717854 0.00016697 deg
M 127.4703831676125 0.00016533 deg
tp 2458073.625638373722
(2017-Nov-16.12563837)
0.00068113 TDB
period 1487.990900098373
4.07
2.7806e-05
7.613e-08
d
yr
n .2419369634425855 4.521e-09 deg/d
Q 2.802336821202801 3.4911e-08 au
  Orbit Determination Parameters
   # obs. used (total)      193  
   data-arc span      6824 days (18.68 yr)  
   first obs. used      2001-02-19  
   last obs. used      2019-10-27  
   planetary ephem.      DE431  
   SB-pert. ephem.      SB431-N16  
   condition code      0  
   norm. resid. RMS      .54862  
   source      ORB  
   producer      Otto Matic  
   solution date      2019-Nov-08 07:37:15  

Additional Information
 Earth MOID = 1.29736 au 
 Jupiter MOID = 2.15487 au 
 T_jup = 3.432 
[ show covariance matrix ]

Ephemeris | Orbit Diagram | Orbital Elements | Mission Design | Physical Parameters | Discovery Circumstances | Close-Approach Data ]

Physical Parameter Table
Parameter Symbol Value Units Sigma Reference Notes
absolute magnitude H 16.8   n/a MPO352865  

305002 (2007 TQ269)          Discovered 2007-Oct-09 by Spacewatch at Kitt Peak
Reference: 20111110/Numbers.arcLast Updated: 2011-11-14

[ show close-approach data ]
Ephemeris | Orbit Diagram | Orbital Elements | Mission Design | Physical Parameters | Discovery Circumstances | Close-Approach Data ]
ABOUT SSD CREDITS/AWARDS PRIVACY/COPYRIGHT GLOSSARY LINKS
FirstGov
(server date/time)  
NASA Home Page
Site Manager:   Ryan S. Park
Webmaster  Alan B. Chamberlin